Time,TemperatureF,DewpointF,PressureIn,WindDirection,WindDirectionDegrees,WindSpeedMPH,WindSpeedGustMPH,Humidity,HourlyPrecipIn,Conditions,Clouds,dailyrainin,SoftwareType,DateUTC
2013-07-30 00:00:00,55.5,47.0,30.16,SW,219,0.0,1.0,73,0.00,,,0.01,weatherlink.com 1.10,2013-07-30 07:00:00,
2013-07-30 00:15:00,55.5,47.0,30.16,SW,219,0.0,2.0,72,0.00,,,0.00,weatherlink.com 1.10,2013-07-30 07:15:00,
2013-07-30 00:30:00,55.1,47.0,30.16,SW,219,0.0,1.0,74,0.00,,,0.00,weatherlink.com 1.10,2013-07-30 07:30:00,
2013-07-30 00:45:00,54.7,47.0,30.16,SW,219,1.0,2.0,74,0.00,,,0.00,weatherlink.com 1.10,2013-07-30 07:45:00,
2013-07-30 01:00:00,54.3,47.0,30.16,SW,219,0.0,2.0,75,0.00,,,0.00,weatherlink.com 1.10,2013-07-30 08:00:00,
2013-07-30 01:15:00,54.1,46.0,30.16,NNW,328,0.0,3.0,74,0.00,,,0.00,weatherlink.com 1.10,2013-07-30 08:15:00,
2013-07-30 01:30:00,53.8,46.0,30.16,NNW,328,1.0,2.0,75,0.00,,,0.00,weatherlink.com 1.10,2013-07-30 08:30:00,
2013-07-30 01:45:00,53.9,47.0,30.16,NNW,328,0.0,2.0,76,0.00,,,0.00,weatherlink.com 1.10,2013-07-30 08:45:00,
2013-07-30 02:00:00,53.7,46.0,30.17,NNW,341,0.0,1.0,74,0.00,,,0.00,weatherlink.com 1.10,2013-07-30 09:00:00,
2013-07-30 02:15:00,54.2,46.0,30.16,ENE,72,0.0,2.0,73,0.00,,,0.00,weatherlink.com 1.10,2013-07-30 09:15:00,
2013-07-30 02:30:00,54.0,46.0,30.16,ENE,72,0.0,2.0,73,0.00,,,0.00,weatherlink.com 1.10,2013-07-30 09:30:00,
2013-07-30 02:46:00,53.7,45.0,30.16,ENE,57,0.0,2.0,73,0.00,,,0.00,weatherlink.com 1.10,2013-07-30 09:46:00,
2013-07-30 03:01:00,53.8,45.0,30.16,NE,39,0.0,2.0,73,0.00,,,0.00,weatherlink.com 1.10,2013-07-30 10:01:00,
2013-07-30 03:16:00,53.9,45.0,30.16,NE,39,0.0,1.0,73,0.00,,,0.00,weatherlink.com 1.10,2013-07-30 10:16:00,
2013-07-30 03:31:00,53.7,45.0,30.17,NE,39,0.0,3.0,72,0.00,,,0.00,weatherlink.com 1.10,2013-07-30 10:31:00,
2013-07-30 03:46:00,53.4,45.0,30.17,NE,39,0.0,1.0,73,0.00,,,0.00,weatherlink.com 1.10,2013-07-30 10:46:00,
2013-07-30 04:01:00,53.0,45.0,30.18,NE,39,0.0,1.0,75,0.00,,,0.00,weatherlink.com 1.10,2013-07-30 11:01:00,
2013-07-30 04:16:00,52.7,45.0,30.18,NE,39,0.0,2.0,75,0.00,,,0.00,weatherlink.com 1.10,2013-07-30 11:16:00,
2013-07-30 04:31:00,52.9,45.0,30.18,NE,40,0.0,2.0,75,0.00,,,0.00,weatherlink.com 1.10,2013-07-30 11:31:00,
2013-07-30 04:46:00,52.6,45.0,30.19,NE,40,0.0,3.0,76,0.00,,,0.00,weatherlink.com 1.10,2013-07-30 11:46:00,
2013-07-30 05:01:00,52.1,45.0,30.19,NE,43,0.0,2.0,76,0.00,,,0.00,weatherlink.com 1.10,2013-07-30 12:01:00,
2013-07-30 05:16:00,52.3,45.0,30.19,NE,43,0.0,3.0,76,0.00,,,0.00,weatherlink.com 1.10,2013-07-30 12:16:00,
2013-07-30 05:31:00,52.3,45.0,30.20,NE,43,0.0,3.0,76,0.00,,,0.00,weatherlink.com 1.10,2013-07-30 12:31:00,
2013-07-30 06:01:00,52.5,45.0,30.20,NE,43,0.0,3.0,75,0.00,,,0.00,weatherlink.com 1.10,2013-07-30 13:01:00,
2013-07-30 06:16:00,53.3,45.0,30.21,NE,43,0.0,3.0,73,0.00,,,0.00,weatherlink.com 1.10,2013-07-30 13:16:00,
2013-07-30 06:31:00,53.8,46.0,30.21,NE,39,0.0,2.0,74,0.00,,,0.00,weatherlink.com 1.10,2013-07-30 13:31:00,
2013-07-30 06:46:00,55.0,46.0,30.22,NNE,23,1.0,3.0,72,0.00,,,0.00,weatherlink.com 1.10,2013-07-30 13:46:00,
2013-07-30 07:01:00,56.9,47.0,30.22,NNE,23,0.0,2.0,70,0.00,,,0.00,weatherlink.com 1.10,2013-07-30 14:01:00,
2013-07-30 07:16:00,59.0,48.0,30.22,NNE,23,0.0,2.0,68,0.00,,,0.00,weatherlink.com 1.10,2013-07-30 14:16:00,
2013-07-30 07:31:00,61.3,49.0,30.22,NNE,23,0.0,1.0,65,0.00,,,0.00,weatherlink.com 1.10,2013-07-30 14:31:00,
2013-07-30 07:46:00,63.1,51.0,30.22,NNE,23,0.0,0.0,64,0.00,,,0.00,weatherlink.com 1.10,2013-07-30 14:46:00,
2013-07-30 08:01:00,64.2,51.0,30.23,NNE,23,0.0,0.0,62,0.00,,,0.00,weatherlink.com 1.10,2013-07-30 15:01:00,
2013-07-30 08:16:00,66.1,50.0,30.23,NNE,23,0.0,1.0,57,0.00,,,0.00,weatherlink.com 1.10,2013-07-30 15:16:00,
2013-07-30 08:31:00,68.5,50.0,30.23,NNE,23,0.0,1.0,52,0.00,,,0.00,weatherlink.com 1.10,2013-07-30 15:31:00,
2013-07-30 08:47:00,69.7,47.0,30.23,NNE,23,0.0,1.0,45,0.00,,,0.00,weatherlink.com 1.10,2013-07-30 15:47:00,
2013-07-30 09:02:00,71.3,47.0,30.22,SE,140,2.0,2.0,42,0.00,,,0.00,weatherlink.com 1.10,2013-07-30 16:02:00,
2013-07-30 09:17:00,72.4,47.0,30.22,South,176,1.0,3.0,40,0.00,,,0.00,weatherlink.com 1.10,2013-07-30 16:17:00,
2013-07-30 09:32:00,73.4,47.0,30.23,SW,224,2.0,5.0,39,0.00,,,0.00,weatherlink.com 1.10,2013-07-30 16:32:00,
2013-07-30 09:47:00,73.9,47.0,30.23,West,271,0.0,6.0,39,0.00,,,0.00,weatherlink.com 1.10,2013-07-30 16:47:00,
2013-07-30 10:02:00,74.7,48.0,30.23,NW,313,2.0,5.0,39,0.00,,,0.00,weatherlink.com 1.10,2013-07-30 17:02:00,
2013-07-30 10:17:00,75.1,47.0,30.23,West,265,0.0,6.0,37,0.00,,,0.00,weatherlink.com 1.10,2013-07-30 17:17:00,
2013-07-30 10:32:00,75.8,48.0,30.23,SSW,205,0.0,7.0,37,0.00,,,0.00,weatherlink.com 1.10,2013-07-30 17:32:00,
2013-07-30 10:47:00,76.6,48.0,30.22,SSW,197,4.0,5.0,37,0.00,,,0.00,weatherlink.com 1.10,2013-07-30 17:47:00,
2013-07-30 11:02:00,76.9,48.0,30.21,SW,235,1.0,6.0,36,0.00,,,0.00,weatherlink.com 1.10,2013-07-30 18:02:00,
2013-07-30 11:17:00,77.1,46.0,30.21,SSW,210,1.0,5.0,33,0.00,,,0.00,weatherlink.com 1.10,2013-07-30 18:17:00,
2013-07-30 11:32:00,77.2,45.0,30.21,SW,221,2.0,10.0,32,0.00,,,0.00,weatherlink.com 1.10,2013-07-30 18:32:00,
2013-07-30 11:47:00,78.1,46.0,30.20,NW,324,1.0,7.0,32,0.00,,,0.00,weatherlink.com 1.10,2013-07-30 18:47:00,
2013-07-30 12:02:00,78.7,46.0,30.20,West,275,2.0,6.0,31,0.00,,,0.00,weatherlink.com 1.10,2013-07-30 19:02:00,
2013-07-30 12:17:00,78.7,45.0,30.20,SW,226,5.0,7.0,30,0.00,,,0.00,weatherlink.com 1.10,2013-07-30 19:17:00,
2013-07-30 12:32:00,79.1,46.0,30.20,SSW,195,1.0,7.0,31,0.00,,,0.00,weatherlink.com 1.10,2013-07-30 19:32:00,
2013-07-30 12:47:00,80.4,46.0,30.19,West,259,2.0,6.0,30,0.00,,,0.00,weatherlink.com 1.10,2013-07-30 19:47:00,
2013-07-30 13:02:00,81.3,46.0,30.19,SSW,193,0.0,5.0,29,0.00,,,0.00,weatherlink.com 1.10,2013-07-30 20:02:00,
2013-07-30 13:17:00,80.9,46.0,30.19,SW,220,2.0,7.0,29,0.00,,,0.00,weatherlink.com 1.10,2013-07-30 20:17:00,
2013-07-30 13:32:00,81.0,46.0,30.18,SSW,193,1.0,6.0,29,0.00,,,0.00,weatherlink.com 1.10,2013-07-30 20:32:00,
2013-07-30 13:47:00,81.7,46.0,30.18,SW,223,1.0,6.0,29,0.00,,,0.00,weatherlink.com 1.10,2013-07-30 20:47:00,
2013-07-30 14:02:00,83.0,45.0,30.17,West,266,5.0,7.0,26,0.00,,,0.00,weatherlink.com 1.10,2013-07-30 21:02:00,
2013-07-30 14:17:00,82.3,46.0,30.17,NW,308,0.0,5.0,28,0.00,,,0.00,weatherlink.com 1.10,2013-07-30 21:17:00,
2013-07-30 14:32:00,83.0,46.0,30.16,South,175,0.0,6.0,27,0.00,,,0.00,weatherlink.com 1.10,2013-07-30 21:32:00,
2013-07-30 14:47:00,84.4,45.0,30.16,West,263,5.0,6.0,25,0.00,,,0.00,weatherlink.com 1.10,2013-07-30 21:47:00,
2013-07-30 15:02:00,83.5,43.0,30.15,West,272,1.0,8.0,24,0.00,,,0.00,weatherlink.com 1.10,2013-07-30 22:02:00,
2013-07-30 15:18:00,83.5,43.0,30.15,SSW,207,0.0,6.0,24,0.00,,,0.00,weatherlink.com 1.10,2013-07-30 22:18:00,
2013-07-30 15:33:00,83.6,43.0,30.14,NW,319,1.0,9.0,24,0.00,,,0.00,weatherlink.com 1.10,2013-07-30 22:33:00,
2013-07-30 15:48:00,83.8,45.0,30.14,West,269,3.0,7.0,26,0.00,,,0.00,weatherlink.com 1.10,2013-07-30 22:48:00,
2013-07-30 16:03:00,84.5,45.0,30.14,West,262,0.0,6.0,25,0.00,,,0.00,weatherlink.com 1.10,2013-07-30 23:03:00,
2013-07-30 16:18:00,84.4,44.0,30.13,NW,309,3.0,7.0,24,0.00,,,0.00,weatherlink.com 1.10,2013-07-30 23:18:00,
2013-07-30 16:33:00,83.9,42.0,30.13,South,186,2.0,4.0,23,0.00,,,0.00,weatherlink.com 1.10,2013-07-30 23:33:00,
2013-07-30 16:48:00,83.9,41.0,30.13,SSW,212,0.0,9.0,22,0.00,,,0.00,weatherlink.com 1.10,2013-07-30 23:48:00,
2013-07-30 17:03:00,83.0,46.0,30.12,West,280,0.0,8.0,27,0.00,,,0.00,weatherlink.com 1.10,2013-07-31 00:03:00,
2013-07-30 17:18:00,81.6,45.0,30.12,West,264,1.0,5.0,28,0.00,,,0.00,weatherlink.com 1.10,2013-07-31 00:18:00,
2013-07-30 17:33:00,81.2,46.0,30.12,WNW,300,0.0,5.0,29,0.00,,,0.00,weatherlink.com 1.10,2013-07-31 00:33:00,
2013-07-30 17:48:00,80.8,46.0,30.11,West,261,1.0,6.0,29,0.00,,,0.00,weatherlink.com 1.10,2013-07-31 00:48:00,
2013-07-30 18:03:00,79.9,46.0,30.12,West,266,4.0,5.0,30,0.00,,,0.00,weatherlink.com 1.10,2013-07-31 01:03:00,
2013-07-30 18:18:00,78.2,46.0,30.12,SW,224,2.0,2.0,32,0.00,,,0.00,weatherlink.com 1.10,2013-07-31 01:18:00,
2013-07-30 18:33:00,77.0,47.0,30.12,NW,323,0.0,2.0,34,0.00,,,0.00,weatherlink.com 1.10,2013-07-31 01:33:00,
2013-07-30 18:48:00,76.1,47.0,30.13,NW,323,0.0,0.0,36,0.00,,,0.00,weatherlink.com 1.10,2013-07-31 01:48:00,
2013-07-30 19:03:00,74.8,47.0,30.13,NW,323,0.0,1.0,38,0.00,,,0.00,weatherlink.com 1.10,2013-07-31 02:03:00,
2013-07-30 19:18:00,73.8,48.0,30.13,NW,323,0.0,0.0,40,0.00,,,0.00,weatherlink.com 1.10,2013-07-31 02:18:00,
2013-07-30 19:33:00,72.6,48.0,30.13,NW,323,0.0,0.0,42,0.00,,,0.00,weatherlink.com 1.10,2013-07-31 02:33:00,
2013-07-30 19:48:00,70.5,49.0,30.13,NW,323,0.0,1.0,47,0.00,,,0.00,weatherlink.com 1.10,2013-07-31 02:48:00,
2013-07-30 20:03:00,69.0,49.0,30.13,NW,323,0.0,1.0,49,0.00,,,0.00,weatherlink.com 1.10,2013-07-31 03:03:00,
2013-07-30 20:18:00,67.6,49.0,30.14,NW,323,0.0,2.0,52,0.00,,,0.00,weatherlink.com 1.10,2013-07-31 03:18:00,
2013-07-30 20:33:00,66.5,49.0,30.14,NW,323,1.0,2.0,54,0.00,,,0.00,weatherlink.com 1.10,2013-07-31 03:33:00,
2013-07-30 20:48:00,65.5,49.0,30.14,NW,323,0.0,1.0,56,0.00,,,0.00,weatherlink.com 1.10,2013-07-31 03:48:00,
2013-07-30 21:03:00,64.5,49.0,30.15,NE,34,0.0,1.0,58,0.00,,,0.00,weatherlink.com 1.10,2013-07-31 04:03:00,
2013-07-30 21:18:00,63.8,48.0,30.16,NE,34,0.0,2.0,57,0.00,,,0.00,weatherlink.com 1.10,2013-07-31 04:18:00,
2013-07-30 21:33:00,63.5,48.0,30.16,NE,34,0.0,2.0,58,0.00,,,0.00,weatherlink.com 1.10,2013-07-31 04:33:00,
2013-07-30 21:48:00,63.0,48.0,30.16,NE,34,0.0,1.0,59,0.00,,,0.00,weatherlink.com 1.10,2013-07-31 04:48:00,
2013-07-30 22:03:00,62.3,48.0,30.16,NE,34,0.0,1.0,59,0.00,,,0.00,weatherlink.com 1.10,2013-07-31 05:03:00,
2013-07-30 22:18:00,61.7,47.0,30.17,NE,34,0.0,2.0,60,0.00,,,0.00,weatherlink.com 1.10,2013-07-31 05:18:00,
2013-07-30 22:33:00,61.3,48.0,30.17,NE,34,0.0,2.0,61,0.00,,,0.00,weatherlink.com 1.10,2013-07-31 05:33:00,
2013-07-30 22:48:00,61.2,47.0,30.17,NE,43,0.0,3.0,61,0.00,,,0.00,weatherlink.com 1.10,2013-07-31 05:48:00,
2013-07-30 23:03:00,61.1,47.0,30.17,NE,43,0.0,1.0,60,0.00,,,0.00,weatherlink.com 1.10,2013-07-31 06:03:00,
2013-07-30 23:18:00,60.5,48.0,30.17,NE,43,0.0,2.0,63,0.00,,,0.00,weatherlink.com 1.10,2013-07-31 06:18:00,
2013-07-30 23:33:00,59.9,48.0,30.17,NE,43,0.0,2.0,64,0.00,,,0.00,weatherlink.com 1.10,2013-07-31 06:33:00,
2013-07-30 23:48:00,59.5,47.0,30.17,North,4,2.0,3.0,64,0.00,,,0.00,weatherlink.com 1.10,2013-07-31 06:48:00,